Showing default

COSMOS 2213, 22184

Orbit data source: Space-Track

COSMOS 2213, 22184 is a payload satellite owned by VKS (CIS) in LEO that was launched on Tue, 20 Oct 1992 UTC via a TSIKLON-3 launch vehicle from the Plesetsk Missile And Space Complex (PKMTR). Payloads include a variety of satellites, spacecraft, and rockets equipped with specific instruments for various scientific and technological missions. These include communications satellites like Starlink; space stations such as the ISS; scientific satellites like the Hubble; Earth observation satellites from companies like Planet Labs, Umbra, and HawkEye 360; GPS; miniature CubeSats for education and research; and military/defense satellites.

Loading next visibility...
COSMOS 2213 details
Identifier
22184, 1992-068C
Orbit
LEO
Last TLE update12 hours ago
Origin
Flag of CISVKS (CIS)
ManufacturerNPO PM
MissionDefense Communications
Bus & MotorSTRELA-3, Unknown motor
Mass225 kg wet, 225 kg dry
Launch date (UTC)
1992-10-20 (32 years ago)
Launch vehicle
TSIKLON-3
Launch site
Plesetsk Missile And Space Complex (PKMTR)
Object type
Payload
Rocket body
Debris
Shape & HBRCyl, 1.6 m
Radar Cross Section1.257 m², Large (>1 m²)

Expand to show TLE details & history

TLE from 12 hours ago
0 COSMOS 2213
1 22184U 92068C   25025.33897199  .00000020  00000-0  49843-4 0  9999
2 22184  82.6027 310.3078 0002436 181.9479 301.6670 12.62593998486869
Epoch: 2025-01-25T08:08Z
Definitive object data (Epoch: 2025-01-25T08:08:07.179Z)
Latitude55.78903°
Longitude-127.5651°
Altitude1,420.483 km
Speed7.156 km/s
True Right ascension07h 57m 24s
True Declination55° 38' 33"
Sunlit
Object was in full shadow at TLE epoch
Visualization TLE readout
Latitude-37.44617°
Longitude57.38036°
Altitude1,427.843 km
Speed7.146 km/s
Apparent Right ascension16h 59m 03s
Apparent Declination-72° 51' 10"
Sunlit
Object is in daylight
Visualization observer readout
Local Sidereal Time21:56:54
Azimuth199.926° SSW
Elevation-33.543°
Doppler factor1
Orbital elements
Apogee altitude1,411.472 km
Perigee altitude1,407.678 km
Semi-major axis7,787.712 km
Eccentricity0.0002436
Inclination82.6027°
RAAN310.3078°
Arg. of periapsis181.9479°
True anomaly301.64324°
Mean anomaly301.667°
Eccentric anomaly301.65512°
Mean motion3.15812 °/min
BSTAR0.000049843
Orbital period113.99 mins
Loading maneuver chart data...
Loading historical data...
Loading historical data...
Loading historical data...
Loading historical data...
Loading historical data...
Loading historical data...
Loading historical data...

COSMOS 2213 Visibility forecast

Observer location: undefined°, undefined

Span
Click to sort rows by Start time (UTC) header in descending order
Start Az.
Max El. time (UTC)
Max El. Az.
Max El.
End time (UTC)
End Az.
13 mins2025-01-25 20:54:46.726Z231.33° WSW2025-01-25 21:01:46.726Z292.383° WNW27.354°2025-01-25 21:07:46.726Z345.136° N
10 mins2025-01-26 05:01:46.726Z25.101° NE2025-01-26 05:06:46.726Z66.405° ENE19.882°2025-01-26 05:11:46.726Z107.111° ESE
15 mins2025-01-26 06:55:46.726Z348.835° N2025-01-26 07:02:46.726Z249.468° W44.322°2025-01-26 07:10:46.726Z181.273° SSW
5 mins2025-01-26 08:53:46.726Z301.654° NW2025-01-26 08:55:46.726Z286.73° WNW12.779°2025-01-26 08:58:46.726Z264.398° W
9 mins2025-01-26 17:51:46.726Z113.76° SE2025-01-26 17:55:46.726Z80.657° E19.173°2025-01-26 18:00:46.726Z40.66° NE
15 mins2025-01-26 19:42:46.726Z192.995° SSW2025-01-26 19:49:46.726Z271.424° WNW44.266°2025-01-26 19:57:46.726Z4.592° NNE
|